Preview of NWS' New Version of Forecast
This preview is not operational and should not be used for support decisions.
Latest weather observations around

Bakersfield, Meadows Field Airport (KBFL)

Using English Units (Switch to International System of Units)
Date/ Time (PDT) Wind (mph) Vis. (mi) Weather Sky Cond. Temp (°F) Rel. Humidity Wind Chill (°F) Heat Index (°F) Pressure Precip. (in)
Air Dwpt 6 hour Altimeter (inHg) Sea level (inHg) 1 hr 3 hr 6 hr
Max Min
Jun 25 15:54 NNW 14 10 Clear CLR 96 41     15%   92 29.73 29.71      
Jun 25 14:54 NW 16 10 Clear   95 40     15%   91 29.75 29.73      
Jun 25 13:54 WNW 13 10 Clear CLR 94 44     18%   90 29.77 29.75      
Jun 25 12:54 NW 9 10 Clear CLR 92 44     19%   88 29.79 29.76      
Jun 25 11:54 NW 8 10 Clear CLR 90 42     19%   86 29.8 29.78      
Jun 25 10:54 WSW 8 10 Clear CLR 87 44     22%   84 29.8 29.78      
Jun 25 09:54 6 10 Clear CLR 84 47     27%   82 29.8 29.78      
Jun 25 08:54 SW 3 10 Clear CLR 81 48     32%   80 29.81 29.79      
Jun 25 07:54 ESE 3 10 Clear CLR 78 48     35%   77 29.81 29.78      
Jun 25 06:54 SSE 3 10 Clear CLR 74 48     40%   73 29.79 29.77      
Jun 25 05:54 Calm 10 Clear CLR 71 48     44%   70 29.78 29.75      
Jun 25 04:54 E 3 10 Clear CLR 73 49     43%   72 29.77 29.75      
Jun 25 03:54 Calm 9 Clear CLR 73 47     39%   72 29.76 29.74      
Jun 25 02:54 Calm 10 Clear CLR 74 48     40%   73 29.76 29.74      
Jun 25 01:54 NW 5 10 Clear CLR 77 47     35%   76 29.76 29.74      
Jun 25 00:54 Calm 10 Clear CLR 78 47     33%   77 29.77 29.75      
Jun 24 23:54 N 6 10 Clear CLR 77 46     33%   76 29.77 29.74      
Jun 24 22:54 N 7 10 Clear CLR 80 49     34%   79 29.76 29.74      
Jun 24 21:54 NW 8 10 Clear CLR 84 49     30%   82 29.75 29.73      
Jun 24 20:54 N 5 10 Clear CLR 89 42     19%   85 29.73 29.71      
Jun 24 19:54 NNW 6 10 Clear CLR 90 42     19%   86 29.72 29.7      
Jun 24 18:54 N 9 10 Clear CLR 98 39     13%   93 29.72 29.7      
Jun 24 17:54 NW 10 10 Clear   99 38     12%   94 29.72 29.7      
Jun 24 16:54 WNW 11 10 Clear CLR 99 43     15%   95 29.74 29.71      
Jun 24 14:54 NW 11 10 Clear CLR 98 42     15%   94 29.78 29.75      
Jun 24 13:54 NW 9 10 Clear CLR 95 46     19%   91 29.8 29.78      
Jun 24 12:54 WNW 9 10 Clear CLR 94 48     21%   90 29.82 29.8      
Jun 24 11:54 NW 6 10 Clear CLR 91 47     22%   88 29.84 29.82      
Jun 24 10:54 WNW 9 10 Clear CLR 90 46     22%   87 29.86 29.83      
Jun 24 09:54 3 10 Clear CLR 86 47     26%   83 29.86 29.84      
Jun 24 08:54 Calm 10 Clear CLR 83 47     28%   81 29.87 29.84      
Jun 24 07:54 SE 5 10 Clear CLR 79 47     32%   78 29.87 29.85      
Jun 24 06:54 ESE 3 10 Clear CLR 76 46     35%   75 29.86 29.84      
Jun 24 05:54 E 5 10 Clear CLR 73 46     38%   72 29.86 29.83      
Jun 24 04:54 Calm 10 Clear CLR 74 46     37%   73 29.86 29.83      
Jun 24 03:54 Calm 10 Clear CLR 75 46     36%   74 29.86 29.83      
Jun 24 02:54 Calm 10 Clear CLR 76 46     35%   75 29.85 29.83      
Jun 24 01:54 Calm 10 Clear CLR 77 47     35%   76 29.86 29.83      
Jun 24 00:54 Calm 10 Clear CLR 77 44     31%   76 29.86 29.83      
Jun 23 23:54 Calm 10 Clear CLR 81 44     27%   80 29.87 29.84      
Jun 23 22:54 N 5 10 Clear CLR 79 43     28%   78 29.87 29.84      
Jun 23 21:54 NW 3 10 Clear CLR 83 43     24%   81 29.86 29.83      
Jun 23 20:54 N 6 10 Clear CLR 85 44     24%   82 29.84 29.82      
Jun 23 19:54 NNW 7 10 Clear CLR 91 42     18%   87 29.83 29.81      
Jun 23 18:54 N 10 10 Clear CLR 96 42     16%   92 29.83 29.8      
Jun 23 17:54 NW 11 10 Clear CLR 97 41     15%   93 29.83 29.8      
Jun 23 16:54 WNW 11 10 Clear CLR 98        %     29.84 29.81      
Jun 23 15:54 NW 13 10 Clear CLR 98        %     29.86 29.83      
Jun 23 14:54 WNW 10 10 Clear CLR 96 43     16%   92 29.88 29.85      
Jun 23 13:54   10 Clear CLR 94 44     18%   90 29.9 29.88      
Jun 23 12:54 W 7 10 Clear CLR 92 44     19%   88 29.92 29.9      
Jun 23 11:54 W 8 10 Clear CLR 90 44     20%   86 29.94 29.91      
Jun 23 10:54 W 7 10 Clear CLR 87 46     24%   84 29.95 29.93      
Jun 23 09:54 S 3 10 Clear CLR 84 46     27%   82 29.96 29.94      
Jun 23 08:54 S 5 10 Clear CLR 80 46     30%   79 29.97 29.95      
Jun 23 07:54 SE 8 10 Clear CLR 77 46     33%   76 29.96 29.94      
Jun 23 06:54 SSE 5 10 Clear CLR 72 46     40%   71 29.95 29.93      
Jun 23 05:54 ESE 5 10 Clear CLR 70 46     42%     29.94 29.92      
Jun 23 04:54 Calm 10 Clear CLR 71 45     39%   70 29.93 29.91      
Jun 23 03:54 ESE 5 10 Clear CLR 74 46     37%   73 29.92 29.9      
Jun 23 02:54 ESE 3 10 Clear   74 46     37%   73 29.92 29.89      
Jun 23 01:54 Calm 10 Clear CLR 75 45     34%   74 29.92 29.9      
Jun 23 00:54 Calm 10 Clear CLR 76 45     33%   75 29.92 29.9      
Jun 22 23:54 SSE 5 10 Clear CLR 77 45     32%   76 29.93 29.9      
Jun 22 22:54 N 5 10 Clear CLR 80 46     30%   79 29.92 29.9      
Jun 22 21:54 WNW 6 10 Clear CLR 78 45     31%   77 29.91 29.89      
Jun 22 20:54 NNW 7 10 Clear CLR 83 44     26%   81 29.89 29.87      
Jun 22 19:54 N 6 10 Clear CLR 89 44     21%   86 29.88 29.86      
Jun 22 18:54 NNW 13 10 Clear CLR 91 44     20%   87 29.87 29.85      
Jun 22 17:54 NNW 14 10 Clear CLR 92 45     20%   88 29.86 29.84      
May 13 14:54 WNW 10 10 Clear CLR 80 45     29%   79 29.91 29.89      
May 12 17:54 WNW 17 10 Clear CLR 82 38     21%   80 29.8 29.79      
May 12 12:54 WSW 6 10 Clear CLR 78 41     27%   77 29.87 29.85      
May 12 00:54 E 6 10 Clear CLR 67 43     42%     29.76 29.74      
Jun 11 23:54 N 18 10 Mostly Cloudy BKN080 61 42     50%     29.98 29.97      
Jun 11 09:54 NNW 13 10 Mostly Clear FEW039 64 43     46%     29.93 29.92      
Jun 11 07:54 NNW 15 10 Clear CLR 61 44     54%     29.91 29.9      
Jun 10 21:54 N 6 10 Clear CLR 71 46     41%   70 29.84 29.82      
Jun 10 18:54 NW 10 10 Clear CLR 77 46     33%   76 29.82 29.8      
Jun 10 15:54 W 10 10 Clear CLR 77 47     35%   76 29.85 29.84      
Jun 10 08:54 NW 8 10 Cloudy OVC048 63 43     48%     29.96 29.94      
Jun 08 21:54 NW 14 10 Clear   76 48     37%   75 29.92 29.9      
Jun 08 14:01 W 10 9 Mostly Clear FEW001 87 37     17%   84 29.94        
Jun 08 11:54 W 7 10 Clear CLR 81 46     29%   80 29.97 29.95      
Jun 08 06:54 ENE 5 10 Clear CLR 69 46     44%     29.97 29.95      
Jun 07 08:54 3 10 Clear CLR 78 45     31%   77 29.87 29.85